Home   Weather   's-Hertogenbosch   Past weeks
Flag for Netherlands

Past Weather in 's-Hertogenbosch, Netherlands — Yesterday and Last 2 Weeks

Now
59 °F

Fog.


Feels Like: 59 °F
Forecast: 76 / 59 °F
Wind: 5 mph from Southeast

Location: Volkel

Current Time: Jul 18, 2019 at 7:01:13 am

Latest Report: Jul 18, 2019 at 6:32 am


Visibility: 5 mi

Pressure: 29.86 "Hg

Humidity: 82%

Dew Point: 54 °F

Location of 's-HertogenboschLocation

Past Weather in 's-Hertogenbosch — Graph

°F

's-Hertogenbosch Temperature Yesterday

Maximum temperature yesterday: 75 °F (at 2:55 pm)
Minimum temperature yesterday: 50 °F (at 1:55 am)
Average temperature yesterday: 62 °F

High & Low Weather Summary for the Past Weeks

 TemperatureHumidityPressure
High79 °F (Jul 5, 4:25 pm)100% (Jul 3, 5:55 am)30.30 "Hg (Jul 3, 5:55 am)
Low45 °F (Jul 4, 3:55 am)31% (Jul 10, 1:25 pm)29.83 "Hg (Jul 6, 11:55 am)
Average62 °F74%30.05 "Hg
* Reported Jul 3 5:25 am — Jul 18 5:55 am, 's-Hertogenbosch. Weather by CustomWeather, © 2019

Note: Actual official high and low records may vary slightly from our data, if they occured in-between our weather recording intervals... More about our weather records

Advertising

's-Hertogenbosch Weather History for the Previous 24 Hours

Scroll right to see more
 ConditionsComfort  
Time TempWeatherWind HumidityBarometerVisibility
5:55 am
Thu, Jul 18
59 °FFog.5 mph82%29.86 "Hg5 mi
5:27 am59 °FFog.5 mph82%29.86 "Hg4 mi
4:55 am59 °FFog.6 mph82%29.86 "Hg5 mi
4:25 am61 °FFog.6 mph77%29.86 "Hg6 mi
3:55 am61 °FOvercast.6 mph77%29.89 "HgN/A
3:25 am59 °FOvercast.5 mph82%29.89 "HgN/A
2:55 am57 °FOvercast.3 mph88%29.89 "HgN/A
2:25 am57 °FOvercast.2 mph94%29.89 "HgN/A
1:55 am59 °FOvercast.3 mph88%29.89 "HgN/A
1:25 am59 °FOvercast.1 mph88%29.89 "HgN/A
12:55 am57 °FOvercast.1 mph94%29.89 "HgN/A
12:25 am59 °FOvercast.No wind88%29.89 "HgN/A
11:55 pm
Wed, Jul 17
59 °FOvercast.No wind88%29.92 "HgN/A
11:25 pm61 °FOvercast.2 mph83%29.92 "HgN/A
10:55 pm61 °FOvercast.1 mph83%29.92 "HgN/A
10:25 pm63 °FOvercast.No wind77%29.92 "HgN/A
9:55 pm64 °FOvercast.No wind73%29.92 "HgN/A
9:25 pm66 °FOvercast.No wind68%29.92 "HgN/A
8:55 pm68 °FOvercast.2 mph64%29.92 "HgN/A
8:25 pm70 °FMostly cloudy.3 mph60%29.92 "HgN/A
7:55 pm73 °FOvercast.6 mph50%29.92 "HgN/A
7:25 pm73 °FMostly cloudy.6 mph53%29.92 "HgN/A
6:55 pm73 °FMore clouds than sun.8 mph50%29.92 "HgN/A
6:25 pm75 °FCloudy.2 mph47%29.92 "HgN/A
5:55 pm75 °FMostly cloudy.5 mph47%29.92 "HgN/A
5:25 pm73 °FScattered clouds.2 mph47%29.95 "HgN/A
4:55 pm75 °FPartly sunny.5 mph44%29.95 "HgN/A
4:25 pm73 °FMild.3 mph47%29.95 "HgN/A
3:55 pm72 °FPartly sunny.2 mph50%29.95 "HgN/A
3:25 pm72 °FBroken clouds.5 mph57%29.95 "HgN/A
3:05 pm75 °FPartly sunny.2 mph50%29.98 "HgN/A
2:55 pm75 °FScattered clouds.2 mph50%29.98 "HgN/A
2:25 pm72 °FScattered clouds.5 mph57%29.98 "HgN/A
1:55 pm72 °FScattered clouds.2 mph57%29.98 "HgN/A
1:25 pm70 °FMostly cloudy.5 mph60%29.98 "HgN/A
12:55 pm68 °FMostly cloudy.3 mph60%30.01 "HgN/A
12:25 pm68 °FMostly cloudy.3 mph60%30.01 "HgN/A
11:55 am68 °FOvercast.3 mph64%30.01 "HgN/A
11:25 am70 °FOvercast.2 mph60%30.01 "HgN/A
10:55 am66 °FOvercast.3 mph68%30.01 "HgN/A
10:25 am66 °FPartly sunny.3 mph68%30.01 "HgN/A
9:55 am66 °FScattered clouds.3 mph68%30.01 "HgN/A
9:25 am64 °FMild.2 mph73%30.01 "HgN/A
8:55 am63 °FMild.3 mph77%30.01 "HgN/A
8:25 am61 °FFog.2 mph83%30.01 "Hg6 mi
8:01 am59 °FFog.1 mph88%30.01 "Hg5 mi
7:25 am55 °FFog.No wind100%30.01 "Hg3 mi
7:16 am55 °FFog.1 mph94%30.01 "Hg3 mi
7:00 am54 °FFog.No wind100%30.01 "Hg4 mi
Weather by CustomWeather, © 2019

See weather overview